Weather History for Clayton Lake, ME

Change the Weather History Date:

Friday, March 8, 2013

  Actual Average Record
Temperature  
Mean Temperature 32 °F -  
Max Temperature 42 °F 28 °F 57 °F (2012)
Min Temperature 22 °F 3 °F -9 °F (2001)
Degree Days  
Heating Degree Days 34    
Moisture  
Dew Point 19 °F    
Average Humidity 67    
Maximum Humidity 88    
Minimum Humidity 33    
Precipitation  
Precipitation 0.01 in - - ()
Sea Level Pressure  
Sea Level Pressure 30.32 in    
Wind  
Wind Speed 4 mph (NNE)    
Max Wind Speed 8 mph    
Max Gust Speed 16 mph    
Averages and records for this station are not official NWS values.
T = Trace of Precipitation, MM = Missing Value Source: NWS Daily Summary

Daily Weather History Graph

Daily Weather History Graph

Search for Another Location

Airport:

Trip Planner

Search our weather history database for the weather conditions in past years. The results will help you decide how hot, cold, wet, or windy it might be!

Date:

Astronomy

Mar. 08, 2013 Rise Set
Actual Time 6:04 AM EST 5:34 PM EST
Civil Twilight 5:33 AM EST 6:04 PM EST
Nautical Twilight 4:58 AM EST 6:39 PM EST
Astronomical Twilight 4:23 AM EST 7:15 PM EST
Moon 3:56 AM EST (3/8) 2:16 PM EST (3/8)
Length of Visible Light 12h 30m
Length of Day
11h 30m
Waning Crescent, 12% of the Moon is Illuminated
Mar 8
Waning Crescent
Mar 11
New
Mar 19
First Quarter
Mar 27
Full
Apr 3
Last Quarter

Hourly Weather History & Observations

Time (EST) Temp. Windchill Dew Point Humidity Pressure Visibility Wind Dir Wind Speed Gust Speed Precip Events Conditions
12:25 AM 26.6 °F 22.6 °F 20.7 °F 78% 30.30 in - Variable 3.5 mph - N/A   Unknown
1:25 AM 25.9 °F 19.2 °F 19.9 °F 78% 30.30 in - Variable 5.8 mph 13.8 mph N/A   Unknown
2:25 AM 25.0 °F 19.3 °F 19.2 °F 79% 30.30 in - Variable 4.6 mph - N/A   Unknown
3:25 AM 24.3 °F 19.9 °F 19.2 °F 81% 30.29 in - Variable 3.5 mph - N/A   Unknown
4:25 AM 23.5 °F 17.6 °F 18.7 °F 82% 30.29 in - Variable 4.6 mph - N/A   Unknown
5:27 AM 22.8 °F 16.7 °F 18.5 °F 83% 30.31 in - Variable 4.6 mph 11.5 mph 0.00 in   Unknown
6:25 AM 22.1 °F 15.9 °F 18.0 °F 84% 30.32 in - Variable 4.6 mph - N/A   Unknown
7:26 AM 23.2 °F 14.1 °F 18.3 °F 82% 30.34 in - NNE 8.1 mph - N/A   Unknown
8:25 AM 25.7 °F 18.0 °F 18.9 °F 75% 30.35 in - NE 6.9 mph 12.7 mph N/A   Unknown
9:25 AM 29.1 °F 23.0 °F 19.2 °F 67% 30.35 in - Variable 5.8 mph 15.0 mph N/A   Unknown
10:25 AM 33.1 °F 27.7 °F 19.9 °F 59% 30.35 in - Variable 5.8 mph 13.8 mph N/A   Unknown
11:25 AM 35.8 °F 30.1 °F 17.4 °F 47% 30.34 in - NE 6.9 mph 13.8 mph N/A   Unknown
12:29 PM 39.2 °F 34.2 °F 15.8 °F 39% 30.32 in - NNE 6.9 mph 15.0 mph N/A   Unknown
1:25 PM 40.6 °F 36.0 °F 15.1 °F 35% 30.30 in - Variable 6.9 mph 16.1 mph N/A   Unknown
2:27 PM 41.2 °F 36.6 °F 14.0 °F 33% 30.30 in - NNE 6.9 mph 16.1 mph N/A   Unknown
3:25 PM 41.9 °F 39.0 °F 14.7 °F 33% 30.30 in - Variable 4.6 mph 15.0 mph N/A   Unknown
4:29 PM 39.7 °F 36.5 °F 15.3 °F 37% 30.31 in - Variable 4.6 mph - N/A   Unknown
5:27 PM 34.5 °F - 18.7 °F 52% 30.32 in - Calm Calm - N/A   Unknown
6:25 PM 29.3 °F - 20.7 °F 70% 30.33 in - Calm Calm - N/A   Unknown
7:25 PM 27.7 °F - 21.4 °F 77% 30.34 in - Calm Calm - N/A   Unknown
8:25 PM 26.4 °F - 21.9 °F 83% 30.35 in - Calm Calm - 0.00 in   Unknown
9:29 PM 23.5 °F - 20.3 °F 87% 30.37 in - Calm Calm - N/A   Unknown
10:26 PM 24.8 °F - 21.7 °F 88% 30.35 in - Calm Calm - N/A   Unknown
11:25 PM 22.6 °F - 19.6 °F 88% 30.35 in - Calm Calm - N/A   Unknown